This is the latest recevied weather packets stored in our database for station/object N1IJV-10. If no packets are shown the sender has not sent any weather packets the latest 1 day(s).
| Time | Temp. | Humidity | Pressure | Rain* | Wind** | Luminosity | Snow |
|---|---|---|---|---|---|---|---|
| 1778010235 | 12.78° C | 40% | 1008.7 hPa | 0 mm | 0.89 m/s, 5° | 134 W/m² | - |
| 1778009935 | 12.78° C | 41% | 1008.5 hPa | 0 mm | 0.45 m/s, 354° | 143 W/m² | - |
| 1778009633 | 13.33° C | 40% | 1008.7 hPa | 0 mm | 0.89 m/s, 70° | 149 W/m² | - |
| 1778009330 | 12.78° C | 42% | 1008.8 hPa | 0 mm | 0.45 m/s, 136° | 166 W/m² | - |
| 1778009028 | 12.78° C | 40% | 1008.8 hPa | 0 mm | 0.45 m/s, 5° | 185 W/m² | - |
| 1778008725 | 13.33° C | 41% | 1008.7 hPa | 0 mm | 1.34 m/s, 338° | 207 W/m² | - |
| 1778008424 | 13.33° C | 48% | 1008.9 hPa | 0 mm | 0.45 m/s, 48° | 252 W/m² | - |
| 1778008120 | 13.33° C | 42% | 1008.9 hPa | 0 mm | 0.45 m/s, 93° | 224 W/m² | - |
| 1778007816 | 12.78° C | 44% | 1008.9 hPa | 0 mm | 0.89 m/s, 298° | 227 W/m² | - |
| 1778007511 | 12.78° C | 47% | 1009 hPa | 0 mm | 0.45 m/s, 64° | 191 W/m² | - |
| 1778007208 | 13.33° C | 44% | 1008.9 hPa | 0 mm | 2.24 m/s, 18° | 168 W/m² | - |
| 1778006904 | 12.78° C | 46% | 1008.9 hPa | 0 mm | 0.45 m/s, 83° | 176 W/m² | - |
| 1778006602 | 12.78° C | 44% | 1009 hPa | 0 mm | 0.45 m/s, 144° | 173 W/m² | - |
| 1778006299 | 13.33° C | 48% | 1008.8 hPa | 0 mm | 0.45 m/s, 4° | 190 W/m² | - |
| 1778005995 | 13.33° C | 47% | 1009.1 hPa | 0 mm | 0.89 m/s, 308° | 203 W/m² | - |
| 1778005692 | 13.33° C | 45% | 1008.9 hPa | 0 mm | 0.45 m/s, 69° | 220 W/m² | - |
| 1778005389 | 12.78° C | 42% | 1008.9 hPa | 0 mm | 0.89 m/s, 42° | 261 W/m² | - |
| 1778005086 | 13.33° C | 45% | 1008.8 hPa | 0 mm | 0.89 m/s, 91° | 252 W/m² | - |
| 1778004783 | 13.89° C | 45% | 1008.7 hPa | 0 mm | 0.45 m/s, 59° | 249 W/m² | - |
| 1778004480 | 13.33° C | 46% | 1008.9 hPa | 0 mm | 0.45 m/s, 40° | 256 W/m² | - |
| 1778004176 | 13.33° C | 44% | 1008.8 hPa | 0 mm | 0.89 m/s, 29° | 293 W/m² | - |
| 1778003872 | 13.33° C | 44% | 1008.8 hPa | 0 mm | 3.13 m/s, 7° | 317 W/m² | - |
| 1778003569 | 13.33° C | 44% | 1008.8 hPa | 0 mm | 2.24 m/s, 269° | 323 W/m² | - |
| 1778003265 | 13.33° C | 47% | 1008.9 hPa | 0 mm | 0.89 m/s, 65° | 370 W/m² | - |
| 1778002963 | 13.33° C | 44% | 1008.7 hPa | 0 mm | 1.34 m/s, 264° | 336 W/m² | - |
* Rain latest hour (hover to see other rain measurements)
** Current wind speed in m/s (hover to see current wind gust speed)